Edgartown, MA

1:15 AM EST on February 22, 2017 (GMT -0500)
Martha's Vineyard

Weather History for KMVY - September, 2012

Change the Weather History Date:

Friday, September 7, 2012

  Actual Average Record
Temperature  
Mean Temperature 72 °F -  
Max Temperature 82 °F 74 °F 87 °F (1980)
Min Temperature 62 °F 58 °F 34 °F (2000)
Cooling Degree Days 7    
Growing Degree Days 22 (Base 50)    
Moisture  
Dew Point 67 °F    
Average Humidity 86    
Maximum Humidity 94    
Minimum Humidity 65    
Precipitation  
Precipitation 0.01 in - - ()
Sea Level Pressure  
Sea Level Pressure 29.92 in    
Wind  
Wind Speed 2 mph (SW)    
Max Wind Speed 14 mph    
Max Gust Speed 21 mph    
Visibility 6 miles    
Events Fog    
Averages and records for this station are not official NWS values.
T = Trace of Precipitation, MM = Missing Value Source: NWS Daily Summary

Daily Weather History Graph

Daily Weather History Graph

Search for Another Location

Airport or City:

Trip Planner

Search our weather history database for the weather conditions in past years. The results will help you decide how hot, cold, wet, or windy it might be!

Date:

Astronomy

Sep. 07, 2012 Rise Set
Actual Time 6:15 AM EDT 7:04 PM EDT
Civil Twilight 5:47 AM EDT 7:32 PM EDT
Nautical Twilight 5:13 AM EDT 8:05 PM EDT
Astronomical Twilight 4:39 AM EDT 8:40 PM EDT
Moon 10:52 PM EDT (9/7) 1:09 PM EDT (9/7)
Length of Visible Light 13h 45m
Length of Day
12h 49m
Waning Gibbous, 58% of the Moon is Illuminated
Sep 7
Waning Gibbous
Sep 8
Last Quarter
Sep 15
New
Sep 22
First Quarter
Sep 29
Full

Hourly Weather History & Observations

Time (EDT) Temp. Heat Index Dew Point Humidity Pressure Visibility Wind Dir Wind Speed Gust Speed Precip Events Conditions
12:42 AM 66.2 °F - 64.4 °F 94% 29.90 in 2.0 mi Calm Calm - N/A   Clear
12:49 AM 66.2 °F - 62.6 °F 88% 29.90 in 1.2 mi Calm Calm - N/A   Clear
12:53 AM 66.0 °F - 62.1 °F 87% 29.91 in 1.2 mi Calm Calm - N/A   Clear
1:00 AM 64.4 °F - 60.8 °F 88% 29.91 in 3.0 mi Calm Calm - N/A   Partly Cloudy
1:12 AM 66.2 °F - 62.6 °F 88% 29.90 in 1.8 mi South 3.5 mph - N/A   Partly Cloudy
1:23 AM 62.6 °F - 60.8 °F 94% 29.90 in 3.0 mi Calm Calm - N/A   Scattered Clouds
1:35 AM 62.6 °F - 60.8 °F 94% 29.90 in 2.0 mi Calm Calm - N/A   Mostly Cloudy
1:42 AM 62.6 °F - 59.0 °F 88% 29.90 in 1.8 mi Calm Calm - N/A   Mostly Cloudy
1:45 AM 64.4 °F - 60.8 °F 88% 29.90 in 3.0 mi Calm Calm - N/A   Mostly Cloudy
1:53 AM 64.0 °F - 60.1 °F 87% 29.90 in 8.0 mi Calm Calm - N/A   Overcast
2:05 AM 62.6 °F - 60.8 °F 94% 29.90 in 1.8 mi NW 4.6 mph - N/A   Overcast
2:17 AM 64.4 °F - 62.6 °F 94% 29.90 in 3.0 mi Calm Calm - N/A   Overcast
2:26 AM 66.2 °F - 62.6 °F 88% 29.90 in 7.0 mi Calm Calm - N/A   Overcast
2:53 AM 68.0 °F - 64.9 °F 90% 29.89 in 10.0 mi Calm Calm - N/A   Overcast
3:12 AM 66.2 °F - 64.4 °F 94% 29.89 in 9.0 mi Calm Calm - N/A   Scattered Clouds
3:32 AM 66.2 °F - 64.4 °F 94% 29.88 in 1.5 mi Calm Calm - N/A   Clear
3:48 AM 66.2 °F - 62.6 °F 88% 29.88 in 3.0 mi Calm Calm - 0.01 in   Clear
3:53 AM 66.0 °F - 63.0 °F 90% 29.88 in 4.0 mi Calm Calm - 0.01 in   Clear
3:58 AM 66.2 °F - 62.6 °F 88% 29.88 in 1.8 mi Calm Calm - N/A   Partly Cloudy
4:09 AM 66.2 °F - 62.6 °F 88% 29.88 in 1.0 mi South 3.5 mph - N/A   Mist
4:28 AM 66.2 °F - 64.4 °F 94% 29.89 in 0.8 mi SSW 3.5 mph - N/A   Mist
4:50 AM 64.4 °F - 60.8 °F 88% 29.89 in 1.0 mi SW 3.5 mph - N/A   Mist
4:53 AM 64.0 °F - 61.0 °F 90% 29.89 in 0.8 mi Calm Calm - N/A   Mist
5:53 AM 66.9 °F - 64.9 °F 93% 29.90 in 0.8 mi Calm Calm - N/A   Overcast
5:58 AM 66.2 °F - 64.4 °F 94% 29.91 in 1.2 mi Calm Calm - N/A   Overcast
6:43 AM 68.0 °F - 66.2 °F 94% 29.91 in 0.5 mi Calm Calm - N/A Fog Fog
6:53 AM 68.0 °F - 64.9 °F 90% 29.91 in 0.2 mi Calm Calm - N/A Fog Fog
6:57 AM 68.0 °F - 66.2 °F 94% 29.92 in 0.5 mi Calm Calm - N/A Fog Fog
7:08 AM 71.6 °F - 66.2 °F 83% 29.92 in 2.0 mi Calm Calm - N/A   Mostly Cloudy
7:16 AM 71.6 °F - 69.8 °F 94% 29.92 in 9.0 mi Calm Calm - N/A   Mostly Cloudy
7:26 AM 71.6 °F - 69.8 °F 94% 29.92 in 10.0 mi Calm Calm - N/A   Mostly Cloudy
7:53 AM 73.0 °F - 70.0 °F 90% 29.93 in 10.0 mi Calm Calm - N/A   Overcast
8:17 AM 73.4 °F - 71.6 °F 94% 29.93 in 10.0 mi SSW 4.6 mph - N/A   Overcast
8:53 AM 73.9 °F - 71.1 °F 91% 29.94 in 10.0 mi WSW 5.8 mph - N/A   Overcast
9:53 AM 77.0 °F - 72.0 °F 84% 29.94 in 10.0 mi SSW 9.2 mph - N/A   Overcast
10:53 AM 77.0 °F - 71.1 °F 82% 29.94 in 10.0 mi West 6.9 mph - N/A   Overcast
11:00 AM 77.0 °F - 71.6 °F 83% 29.94 in 10.0 mi West 5.8 mph - N/A   Overcast
11:30 AM 78.8 °F - 71.6 °F 78% 29.93 in 10.0 mi SW 8.1 mph - N/A   Mostly Cloudy
11:53 AM 79.0 °F - 70.0 °F 74% 29.93 in 10.0 mi SSW 12.7 mph 17.3 mph N/A   Mostly Cloudy
12:00 PM 80.6 °F 83.9 °F 69.8 °F 70% 29.94 in 10.0 mi SW 13.8 mph 20.7 mph N/A   Mostly Cloudy
12:34 PM 82.4 °F 86.3 °F 69.8 °F 66% 29.92 in 10.0 mi West 8.1 mph - N/A   Scattered Clouds
12:45 PM 80.6 °F 83.9 °F 69.8 °F 70% 29.93 in 10.0 mi West 6.9 mph - N/A   Mostly Cloudy
12:53 PM 81.0 °F 84.4 °F 70.0 °F 69% 29.93 in 10.0 mi SW 11.5 mph - N/A   Mostly Cloudy
1:53 PM 82.9 °F 87.5 °F 71.1 °F 67% 29.94 in 10.0 mi SSW 12.7 mph - N/A   Scattered Clouds
2:53 PM 82.0 °F 85.5 °F 69.1 °F 65% 29.93 in 10.0 mi SW 10.4 mph - N/A   Clear
3:53 PM 82.0 °F 85.5 °F 69.1 °F 65% 29.92 in 10.0 mi WSW 8.1 mph - N/A   Clear
4:53 PM 80.1 °F 83.6 °F 71.1 °F 74% 29.92 in 10.0 mi SW 9.2 mph - N/A   Clear
5:53 PM 78.1 °F - 71.1 °F 79% 29.92 in 10.0 mi South 10.4 mph - N/A   Clear
6:53 PM 75.0 °F - 71.1 °F 87% 29.92 in 10.0 mi SSW 6.9 mph - N/A   Clear
7:50 PM 75.2 °F - 71.6 °F 89% 29.94 in 10.0 mi SSW 4.6 mph - N/A   Mostly Cloudy
7:53 PM 75.0 °F - 71.1 °F 87% 29.94 in 10.0 mi SSW 4.6 mph - N/A   Mostly Cloudy
8:53 PM 75.0 °F - 70.0 °F 84% 29.95 in 10.0 mi SW 5.8 mph - N/A   Mostly Cloudy
9:42 PM 73.4 °F - 69.8 °F 88% 29.94 in 10.0 mi SSW 5.8 mph - N/A   Scattered Clouds
9:53 PM 73.9 °F - 70.0 °F 87% 29.94 in 10.0 mi SSW 6.9 mph - N/A   Partly Cloudy
10:04 PM 75.2 °F - 71.6 °F 89% 29.94 in 10.0 mi SSW 6.9 mph - N/A   Scattered Clouds
10:13 PM 75.2 °F - 71.6 °F 89% 29.93 in 10.0 mi South 6.9 mph - N/A   Mostly Cloudy
10:46 PM 73.4 °F - 69.8 °F 88% 29.93 in 10.0 mi SSW 8.1 mph - N/A   Scattered Clouds
10:53 PM 75.0 °F - 71.1 °F 87% 29.93 in 10.0 mi South 6.9 mph - N/A   Partly Cloudy
11:53 PM 75.0 °F - 71.1 °F 87% 29.92 in 10.0 mi South 8.1 mph - N/A   Mostly Cloudy